Naples Weather Center

Moon Phase Calendar



Online Cameras

 


      

Current Conditions in Naples
10/20/2020 10:01:48 AM

76°F
Feels Like 83
Rain
Humidity
100%
Pressure
29.97"
Wind
6.9 mph (NE)
Dew Point
76°F
UV Index
7/10 (High)
Visibility
6 mi

Hourly Forecast

Date & Time Tue, Oct 20
10:00 AM
Tue, Oct 20
11:00 AM
Tue, Oct 20
12:00 PM
Tue, Oct 20
1:00 PM
Tue, Oct 20
2:00 PM
Tue, Oct 20
3:00 PM
Tue, Oct 20
4:00 PM
Tue, Oct 20
5:00 PM
Tue, Oct 20
6:00 PM
Tue, Oct 20
7:00 PM
Tue, Oct 20
8:00 PM
Tue, Oct 20
9:00 PM
Tue, Oct 20
10:00 PM
Tue, Oct 20
11:00 PM
Wed, Oct 21
12:00 AM
Wed, Oct 21
1:00 AM
Wed, Oct 21
2:00 AM
Wed, Oct 21
3:00 AM
Wed, Oct 21
4:00 AM
Wed, Oct 21
5:00 AM
Wed, Oct 21
6:00 AM
Wed, Oct 21
7:00 AM
Wed, Oct 21
8:00 AM
Wed, Oct 21
9:00 AM
Wed, Oct 21
10:00 AM
Wed, Oct 21
11:00 AM
Wed, Oct 21
12:00 PM
Wed, Oct 21
1:00 PM
Wed, Oct 21
2:00 PM
Wed, Oct 21
3:00 PM
Wed, Oct 21
4:00 PM
Wed, Oct 21
5:00 PM
Wed, Oct 21
6:00 PM
Wed, Oct 21
7:00 PM
Wed, Oct 21
8:00 PM
Wed, Oct 21
9:00 PM
Wed, Oct 21
10:00 PM
Wed, Oct 21
11:00 PM
Thu, Oct 22
12:00 AM
Thu, Oct 22
1:00 AM
Thu, Oct 22
2:00 AM
Thu, Oct 22
3:00 AM
Thu, Oct 22
4:00 AM
Thu, Oct 22
5:00 AM
Thu, Oct 22
6:00 AM
Thu, Oct 22
7:00 AM
Thu, Oct 22
8:00 AM
Thu, Oct 22
9:00 AM
Condition
Rain

Clouds

Clouds

Clouds

Rain

Rain

Rain

Rain

Rain

Rain

Rain

Clouds

Rain

Rain

Rain

Rain

Rain

Rain

Rain

Rain

Rain

Rain

Rain

Rain

Rain

Rain

Rain

Rain

Rain

Clouds

Clouds

Clouds

Clouds

Clouds

Clouds

Clouds

Clouds

Clouds

Clouds

Clouds

Clouds

Clouds

Clouds

Clouds

Clouds

Clouds

Clear

Clear
Temperature 76°F78°F81°F83°F83°F83°F83°F82°F80°F79°F79°F79°F79°F79°F79°F79°F78°F78°F78°F77°F76°F76°F76°F76°F76°F76°F75°F75°F76°F78°F77°F77°F77°F76°F76°F76°F76°F76°F76°F76°F76°F75°F75°F75°F75°F75°F75°F77°F
Feels Like 79°F79°F82°F83°F84°F84°F83°F81°F80°F79°F79°F78°F78°F78°F77°F77°F78°F78°F77°F75°F74°F73°F72°F73°F73°F72°F71°F72°F73°F73°F72°F72°F73°F73°F73°F74°F75°F75°F76°F76°F76°F75°F75°F76°F76°F76°F76°F78°F
Cloudiness 75%87%95%98%100%100%100%100%100%100%100%100%100%100%100%100%100%100%100%100%100%100%100%99%99%99%98%96%94%70%70%70%69%62%63%94%85%78%70%67%63%34%23%16%14%11%9%9%
Visibility 6 mi6 mi6 mi6 mi6 mi6 mi6 mi6 mi6 mi6 mi6 mi6 mi6 mi6 mi6 mi6 mi6 mi6 mi6 mi6 mi6 mi6 mi6 mi6 mi6 mi6 mi6 mi6 mi6 mi6 mi6 mi6 mi6 mi6 mi6 mi6 mi6 mi6 mi6 mi6 mi6 mi6 mi6 mi6 mi6 mi6 mi6 mi6 mi
Precipitation 91%75%75%75%97%82%82%92%97%100%100%75%86%100%100%100%100%67%75%88%97%93%93%82%81%93%99%99%99%47%39%32%33%27%27%14%22%25%23%23%23%30%27%27%23%26%25%13%
Humidity 100%87%76%71%69%69%69%71%75%77%76%76%77%74%74%72%74%76%77%79%82%82%83%84%85%84%87%87%81%74%73%69%70%73%73%73%75%78%79%79%80%82%83%83%83%83%84%80%
Dew Point 76°F74°F73°F72°F72°F72°F72°F71°F71°F72°F71°F71°F71°F70°F70°F70°F70°F70°F70°F70°F71°F70°F70°F71°F71°F71°F71°F71°F70°F69°F68°F67°F67°F67°F67°F67°F68°F69°F69°F70°F70°F70°F70°F70°F70°F70°F70°F71°F
Pressure 29.97"29.97"29.97"29.94"29.91"29.88"29.88"29.85"29.85"29.88"29.91"29.91"29.91"29.91"29.91"29.91"29.91"29.88"29.88"29.88"29.88"29.91"29.91"29.94"29.94"29.94"29.97"29.94"29.94"29.91"29.91"29.91"29.91"29.91"29.94"29.97"29.97"29.97"29.94"29.94"29.94"29.91"29.91"29.91"29.91"29.91"29.94"29.94"
Wind Speed 15.3 mph16.3 mph15.8 mph14 mph13.1 mph13.8 mph14.5 mph15.2 mph15.2 mph14.9 mph15.8 mph16.1 mph16 mph16.8 mph17.8 mph15.9 mph14.1 mph13.4 mph14.8 mph16.6 mph18.8 mph19.8 mph20.1 mph19 mph20.1 mph22.8 mph22.1 mph19.6 mph18.9 mph20 mph21.2 mph20 mph17.8 mph15.7 mph16 mph15.3 mph14.5 mph14.3 mph13.8 mph14.2 mph13.9 mph13.9 mph13.3 mph11.8 mph11.8 mph11.6 mph11.4 mph13 mph
Wind
Direction
81°
E
82°
E
85°
E
88°
E
80°
E
79°
E
86°
E
95°
E
97°
E
94°
E
87°
E
82°
E
79°
E
75°
ENE
80°
E
74°
ENE
69°
ENE
74°
ENE
78°
ENE
79°
E
70°
ENE
66°
ENE
68°
ENE
63°
ENE
65°
ENE
76°
ENE
78°
ENE
80°
E
83°
E
89°
E
89°
E
86°
E
86°
E
87°
E
86°
E
88°
E
85°
E
83°
E
87°
E
87°
E
86°
E
82°
E
82°
E
83°
E
82°
E
78°
ENE
72°
ENE
80°
E

Daily Forecast

Date High Low Precip. Humidity
Today
Oct 20

Rain
82 °F
76 °F
100%
75%
Wednesday
Oct 21

Rain
78 °F
76 °F
100%
81%
Thursday
Oct 22

Rain
85 °F
75 °F
98%
62%
Friday
Oct 23

Rain
86 °F
76 °F
27%
60%
Saturday
Oct 24

Clouds
85 °F
75 °F
2%
61%
Sunday
Oct 25

Clear
85 °F
74 °F
0%
53%
Monday
Oct 26

Rain
84 °F
75 °F
70%
67%
Tuesday
Oct 27

Rain
84 °F
76 °F
60%
67%
Wednesday
Oct 28

Rain
84 °F
77 °F
89%
68%
Thursday
Oct 29

Rain
85 °F
76 °F
100%
62%
Friday
Oct 30

Rain
85 °F
78 °F
100%
66%
Saturday
Oct 31

Rain
83 °F
74 °F
91%
68%
Sunday
Nov 1

Rain
81 °F
74 °F
52%
68%
Monday
Nov 2

Clouds
78 °F
73 °F
30%
65%
Tuesday
Nov 3

Clouds
77 °F
73 °F
13%
69%
Wednesday
Nov 4

Rain
79 °F
75 °F
51%
73%


Temperature 8-14 Day Outlook



Precipitation 8-14 Day Outlook




Quick Links
Naples News
Naples Photos
Naples Videos




About Us
Contact Us
Site Map
Search Site
Advertise With Us
   
Naples.USGulf.info
THE NAPLES WEBSITE

Copyright 2020, Coastal Town
Privacy    |    Legal